Powrót do katalogu

STARLINK-31174

AktywnyŁącznośćVLEO
NORAD 58808·PAYLOAD·🇺🇸 United States

Wystrzelony Jan 15, 2024 z Cape Canaveral Space Force Station

Loading…

Następne Przeloty (najbliższe 24 godziny)

TLE

ŚwieżeSource: CelesTrak SupGP

Epoka: Sep 14, 2026, 21:00 UTC

1 58808C 24012X   26257.87548611 -.00008109  00000+0 -29370-3 0  2570
2 58808  42.9996 176.4225 0001279 261.4225 115.5577 15.27583174    13

Śledź STARLINK-31174 w czasie rzeczywistym z AllMySat

Download on the App Store